EW4729 Weather Reports


Display with metric or nautical units.
time (UTC)temp
F
wind
direction
speed
MPH
gust
MPH
rain 1hr
in
rain 24hr
in
rain mn
in
humidity
%
barometer
mb
20260502200555 73 42 8.0 19.0 0.00 0.44 0.01 57 1020.3
20260502200101 73 93 6.0 13.0 0.00 0.44 0.01 59 1020.4
20260502195554 73 59 5.0 13.0 0.00 0.55 0.01 55 1020.5
20260502195052 73 38 6.0 13.0 0.00 0.55 0.01 55 1020.8
20260502194604 73 71 5.0 12.0 0.00 0.55 0.01 56 1020.8
20260502194052 73 63 3.0 10.0 0.00 0.55 0.01 61 1021.0
20260502193553 73 80 5.0 14.0 0.00 0.55 0.01 58 1021.1
20260502193113 73 17 5.0 14.0 0.00 0.55 0.01 58 1021.0
20260502192553 73 66 6.0 14.0 0.00 0.55 0.01 56 1021.0
20260502192054 72 60 6.0 12.0 0.00 0.55 0.01 59 1021.0
20260502191602 72 79 5.0 13.0 0.00 0.55 0.01 58 1021.0
20260502191053 72 306 7.0 13.0 0.00 0.55 0.01 57 1021.1
20260502190553 72 5 5.0 13.0 0.00 0.55 0.01 58 1021.0
20260502190055 72 40 3.0 11.0 0.00 0.55 0.01 62 1021.2
20260502185551 72 26 4.0 12.0 0.00 0.58 0.01 58 1021.3
20260502185121 71 63 4.0 14.0 0.00 0.58 0.01 59 1021.3
20260502184602 71 37 6.0 15.0 0.00 0.58 0.01 59 1021.5
20260502184053 71 79 6.0 15.0 0.00 0.58 0.01 57 1021.4
20260502183553 71 38 6.0 15.0 0.00 0.58 0.01 58 1021.6
20260502183059 71 25 4.0 13.0 0.00 0.58 0.01 60 1021.5
20260502182556 71 5 6.0 15.0 0.00 0.58 0.01 60 1021.6
20260502182054 71 28 8.0 15.0 0.00 0.58 0.01 59 1021.6
20260502181556 71 44 6.0 15.0 0.00 0.58 0.01 59 1021.8
20260502181052 71 352 6.0 15.0 0.00 0.58 0.01 59 1021.9
20260502180552 71 99 4.0 12.0 0.00 0.58 0.01 60 1021.9
20260502164052 68 33 5.0 13.0 0.00 0.67 0.01 66 1022.4
20260502163554 68 16 6.0 13.0 0.00 0.67 0.01 66 1022.5
20260502163100 67 63 5.0 16.0 0.00 0.67 0.01 67 1022.4
20260502162553 67 65 4.0 16.0 0.00 0.67 0.01 69 1022.4
20260502162053 67 70 7.0 14.0 0.00 0.67 0.01 67 1022.4
20260502161555 66 81 6.0 14.0 0.00 0.67 0.01 68 1022.5
20260502161052 66 5 6.0 12.0 0.00 0.67 0.01 67 1022.4
20260502160552 66 12 5.0 15.0 0.00 0.67 0.01 70 1022.4
20260502152054 64 65 6.0 13.0 0.01 0.92 0.01 75 1021.9
20260502151611 63 44 6.0 14.0 0.01 0.92 0.01 76 1021.9
20260502151052 63 133 5.0 14.0 0.01 0.92 0.01 77 1022.0
20260502150554 63 58 5.0 13.0 0.01 0.92 0.01 78 1021.9
20260502130555 54 14 3.0 9.0 0.00 1.62 0.00 93 1020.7
20260502123554 52 20 2.0 5.0 0.00 2.04 0.00 93 1020.5
20260502123100 52 0 1.0 5.0 0.00 2.04 0.00 93 1020.4
20260502122555 52 294 1.0 5.0 0.00 2.04 0.00 93 1020.3
20260502122053 52 0 2.0 5.0 0.00 2.04 0.00 93 1020.1
20260502121559 52 0 1.0 5.0 0.00 2.04 0.00 93 1020.1
20260502121058 52 326 1.0 5.0 0.00 2.04 0.00 93 1020.1
20260502120556 52 25 2.0 9.0 0.00 2.04 0.00 93 1020.1
20260502115554 52 9 2.0 6.0 0.00 2.32 0.00 93 1019.9
20260502115052 52 323 2.0 5.0 0.00 2.32 0.00 93 1019.8
20260502114558 52 347 1.0 5.0 0.00 2.32 0.00 93 1019.9
20260502114052 52 355 0.0 4.0 0.00 2.32 0.00 93 1019.8
20260502113551 52 13 1.0 5.0 0.00 2.32 0.00 93 1019.9
20260502113104 52 28 1.0 5.0 0.00 2.32 0.00 93 1019.8
20260502112551 52 355 2.0 5.0 0.00 2.32 0.00 93 1019.7
20260502112052 52 323 1.0 5.0 0.00 2.32 0.00 93 1019.6
20260502111557 52 351 1.0 5.0 0.00 2.32 0.00 93 1019.6
20260502111055 52 36 1.0 4.0 0.00 2.32 0.00 93 1019.4
20260502110553 52 21 1.0 4.0 0.00 2.32 0.00 93 1019.3
20260502105555 52 55 1.0 5.0 0.00 2.88 0.00 93 1018.9
20260502105052 52 355 1.0 5.0 0.00 2.88 0.00 93 1018.9
20260502104607 52 25 2.0 10.0 0.00 2.88 0.00 93 1018.7
20260502104054 52 13 1.0 10.0 0.00 2.88 0.00 93 1018.8
20260502103554 52 49 3.0 10.0 0.00 2.88 0.00 92 1018.7
20260502103054 52 59 3.0 8.0 0.00 2.88 0.00 92 1018.6
20260502102557 52 340 3.0 7.0 0.00 2.88 0.00 92 1018.4
20260502102053 52 57 2.0 7.0 0.00 2.88 0.00 92 1018.4
20260502101608 52 24 3.0 6.0 0.00 2.88 0.00 92 1018.4
20260502101054 52 10 2.0 8.0 0.00 2.88 0.00 92 1018.5
20260502100552 52 360 2.0 8.0 0.00 2.88 0.00 92 1018.5
20260502091051 53 40 1.0 6.0 0.00 3.51 0.00 92 1017.6
20260502090551 53 5 2.0 6.0 0.00 3.51 0.00 92 1017.4
20260502071052 53 28 2.0 6.0 0.00 4.21 0.00 92 1017.1
20260502070552 53 55 2.0 4.0 0.00 4.21 0.00 92 1017.0
20260502070117 53 38 1.0 5.0 0.00 4.21 0.00 92 1017.1
20260502065552 53 26 2.0 5.0 0.00 4.26 0.00 92 1017.1
20260502065052 53 5 1.0 6.0 0.00 4.26 0.00 92 1017.1
20260502064556 53 38 2.0 12.0 0.00 4.26 0.00 92 1017.0
20260502064051 53 52 5.0 12.0 0.00 4.26 0.00 92 1017.1
20260502063552 54 65 4.0 11.0 0.00 4.26 0.00 92 1017.2
20260502063113 54 34 6.0 11.0 0.00 4.26 0.00 92 1017.2
20260502062556 54 360 3.0 11.0 0.00 4.26 0.00 92 1017.1
20260502062053 54 360 4.0 10.0 0.00 4.26 0.00 92 1017.2
20260502061558 54 56 4.0 10.0 0.00 4.26 0.00 92 1017.1
20260502061051 55 65 4.0 11.0 0.00 4.26 0.00 92 1017.3
20260502060551 55 40 2.0 11.0 0.00 4.26 0.00 92 1017.2
20260502060059 55 80 2.0 10.0 0.00 4.26 0.00 92 1017.3
20260502055551 55 37 6.0 14.0 0.00 4.26 0.00 92 1017.2
20260502055053 55 111 6.0 14.0 0.00 4.26 0.00 92 1017.3
20260502054606 55 13 7.0 14.0 0.00 4.26 0.00 93 1017.3
20260502054059 55 88 3.0 13.0 0.00 4.26 0.00 93 1017.3
20260502053552 55 355 5.0 13.0 0.00 4.26 0.00 93 1017.3
20260502053057 55 24 5.0 13.0 0.00 4.26 0.00 93 1017.2
20260502052552 55 105 5.0 12.0 0.00 4.26 0.00 93 1017.2
20260502052052 55 23 3.0 12.0 0.00 4.26 0.00 93 1017.3
20260502051555 55 53 5.0 14.0 0.00 4.26 0.00 93 1017.3
20260502051051 55 66 5.0 14.0 0.00 4.26 0.00 93 1017.2
20260502050551 55 11 5.0 12.0 0.00 4.26 0.00 93 1017.2
20260502050054 56 341 5.0 12.0 0.00 4.26 0.00 93 1017.1
20260502045552 56 38 5.0 12.0 0.00 4.27 4.26 93 1017.0
20260502045052 55 32 5.0 14.0 0.00 4.27 4.26 93 1017.0
20260502044553 55 58 6.0 16.0 0.00 4.27 4.26 93 1017.0
20260502044053 55 80 6.0 16.0 0.00 4.27 4.26 93 1016.9
20260502043551 55 94 7.0 16.0 0.00 4.27 4.26 93 1016.8
20260502043112 55 9 6.0 15.0 0.00 4.27 4.26 93 1016.8
20260502042551 55 17 6.0 15.0 0.00 4.27 4.26 94 1016.6
20260502042051 55 35 6.0 15.0 0.00 4.27 4.26 94 1016.8
20260502041619 55 37 6.0 15.0 0.00 4.27 4.26 94 1016.7
20260502041059 55 66 5.0 15.0 0.00 4.27 4.26 94 1016.6
20260502040552 56 32 8.0 15.0 0.00 4.27 4.26 94 1016.7
20260502040100 56 69 6.0 13.0 0.00 4.27 4.26 94 1016.6
20260502035551 56 59 4.0 13.0 0.00 4.27 4.26 94 1016.5
20260502035055 56 66 4.0 13.0 0.00 4.27 4.26 94 1016.7
20260502034557 56 9 5.0 15.0 0.00 4.27 4.26 94 1016.6
20260502034052 56 36 4.0 15.0 0.00 4.27 4.26 94 1016.6
20260502033552 56 55 6.0 14.0 0.00 4.27 4.26 94 1016.6
20260502033053 56 38 4.0 11.0 0.00 4.27 4.26 94 1016.4
20260502032551 56 5 4.0 12.0 0.00 4.27 4.26 94 1016.4
20260502032051 56 25 5.0 16.0 0.00 4.27 4.26 94 1016.3
20260502031554 56 38 7.0 16.0 0.00 4.27 4.26 94 1016.3
20260502031051 56 67 4.0 12.0 0.00 4.27 4.26 94 1016.2
20260502030553 56 28 6.0 13.0 0.00 4.27 4.26 94 1016.0
20260502030116 56 31 6.0 17.0 0.00 4.27 4.26 94 1015.9
20260502025552 56 78 6.0 17.0 0.00 4.27 4.26 94 1016.0
20260502025054 56 36 8.0 17.0 0.00 4.27 4.26 94 1016.0
20260502024604 57 38 6.0 14.0 0.00 4.27 4.26 94 1015.9
20260502024052 57 28 6.0 14.0 0.00 4.27 4.26 94 1016.0
20260502023552 57 13 5.0 11.0 0.00 4.27 4.26 94 1015.8
20260502023125 57 51 3.0 17.0 0.00 4.27 4.26 95 1015.7
20260502022557 57 65 3.0 17.0 0.00 4.27 4.26 95 1015.6
20260502022051 57 112 5.0 12.0 0.00 4.27 4.26 95 1015.5
20260502021554 57 47 4.0 12.0 0.00 4.27 4.26 95 1015.4
20260502021051 57 34 4.0 17.0 0.00 4.27 4.26 95 1015.4
20260502020552 57 57 5.0 17.0 0.00 4.27 4.26 95 1015.2
20260502015557 57 44 6.0 16.0 0.00 4.27 4.26 95 1014.9
20260502015055 57 18 8.0 16.0 0.00 4.27 4.26 94 1014.8
20260502014604 58 30 5.0 13.0 0.00 4.27 4.26 95 1014.4
20260502014054 58 37 6.0 13.0 0.00 4.27 4.26 95 1014.1
20260502013554 58 42 4.0 12.0 0.00 4.27 4.26 95 1013.9
20260502013100 58 48 5.0 12.0 0.00 4.27 4.26 95 1013.9
20260502012554 58 344 6.0 16.0 0.00 4.27 4.26 95 1013.9
20260502012154 58 69 7.0 16.0 0.01 4.27 4.26 95 1013.8
20260502011605 58 74 6.0 16.0 0.02 4.27 4.26 95 1013.7
20260502011051 58 49 5.0 16.0 0.02 4.27 4.26 95 1013.6
20260502010552 58 82 6.0 17.0 0.03 4.27 4.26 95 1013.4
20260502010052 58 46 6.0 17.0 0.03 4.27 4.26 95 1013.6
20260502005552 58 59 7.0 18.0 0.04 4.27 4.26 95 1013.7
20260502005057 58 360 6.0 18.0 0.05 4.27 4.26 95 1013.5
20260502004554 59 49 6.0 16.0 0.05 4.27 4.26 95 1013.6
20260502004055 59 22 4.0 15.0 0.05 4.27 4.26 95 1013.8
20260502003555 59 38 7.0 16.0 0.06 4.27 4.26 95 1013.9
20260502003055 59 44 6.0 16.0 0.06 4.27 4.26 95 1013.8
20260502002600 59 50 6.0 19.0 0.06 4.27 4.26 95 1013.7
20260502002054 59 51 8.0 19.0 0.06 4.26 4.25 95 1013.4
20260502001559 59 85 5.0 12.0 0.07 4.25 4.23 95 1013.4
20260502001052 59 34 4.0 14.0 0.08 4.25 4.23 95 1013.9
20260502000552 59 41 5.0 14.0 0.08 4.23 4.23 95 1014.3
20260502000107 59 22 4.0 16.0 0.08 4.23 4.23 95 1014.2
20260501235552 59 5 7.0 16.0 0.08 4.23 4.21 95 1014.0
20260501235055 59 46 6.0 12.0 0.07 4.21 4.21 95 1013.9
20260501234556 60 27 2.0 12.0 0.07 4.21 4.21 95 1013.7
20260501234052 60 67 4.0 14.0 0.07 4.21 4.21 95 1013.5
20260501233552 60 338 4.0 14.0 0.07 4.21 4.19 95 1013.4
20260501233119 60 26 5.0 11.0 0.09 4.21 4.19 95 1013.2
20260501232552 60 46 4.0 14.0 0.12 4.21 4.19 95 1013.2
20260501232052 60 342 5.0 14.0 0.17 4.19 4.19 95 1013.3
20260501231628 60 24 6.0 14.0 0.19 4.17 4.17 95 1013.1
20260501231051 60 40 3.0 17.0 0.19 4.17 4.16 95 1013.5
20260501230551 60 18 6.0 17.0 0.18 4.16 4.15 95 1013.5
20260501230123 60 29 4.0 12.0 0.18 4.16 4.15 95 1013.1
20260501225554 60 67 3.0 12.0 0.17 4.15 4.14 95 1013.1
20260501225054 60 317 4.0 12.0 0.17 4.15 4.14 95 1012.9
20260501224610 60 360 5.0 14.0 0.17 4.15 4.14 95 1012.4
20260501224054 60 36 5.0 17.0 0.17 4.15 4.14 95 1012.0
20260501223555 60 38 5.0 17.0 0.16 4.14 4.13 95 1012.0
20260501223102 60 21 5.0 14.0 0.14 4.12 4.11 95 1012.1
20260501222555 60 79 5.0 11.0 0.11 4.09 4.08 95 1011.8
20260501222055 60 317 5.0 11.0 0.05 4.03 4.02 95 1012.5
20260501221609 60 38 3.0 15.0 0.01 3.99 3.98 95 1012.1
20260501221055 60 67 4.0 19.0 0.00 3.98 3.97 95 1011.0
20260501220554 60 19 7.0 19.0 0.00 3.98 3.97 95 1010.0
20260501220104 60 22 5.0 15.0 0.00 3.98 3.97 95 1010.0
20260501215555 60 90 6.0 15.0 0.00 3.98 3.97 95 1009.9
20260501215053 61 57 4.0 12.0 0.00 3.98 3.97 95 1010.2
20260501214554 61 42 5.0 17.0 0.00 3.98 3.97 95 1010.3
20260501214055 61 30 4.0 17.0 0.00 3.98 3.97 95 1010.4
20260501213554 61 25 7.0 16.0 0.00 3.98 3.97 95 1010.4
20260501213053 61 40 6.0 16.0 0.00 3.98 3.97 95 1010.4
20260501212555 61 54 7.0 18.0 0.00 3.98 3.97 95 1010.2
20260501212058 61 95 6.0 18.0 0.00 3.98 3.97 95 1010.1
20260501211553 61 69 5.0 16.0 0.01 3.98 3.97 95 1010.1
20260501211054 61 70 7.0 18.0 0.06 3.98 3.97 95 1010.0
20260501210553 61 32 8.0 18.0 0.11 3.98 3.97 95 1010.2
20260501210054 61 76 6.0 17.0 0.14 3.98 3.97 95 1010.3
20260501205557 61 63 7.0 15.0 0.16 3.98 3.97 95 1010.6
20260501205054 61 61 5.0 16.0 0.17 3.98 3.97 95 1010.9
20260501204553 61 50 7.0 16.0 0.19 3.98 3.97 95 1010.8
20260501204055 62 46 8.0 19.0 0.20 3.98 3.97 95 1011.0
20260501203554 62 34 5.0 19.0 0.20 3.98 3.97 95 1010.9
20260501203054 62 36 6.0 15.0 0.20 3.98 3.97 95 1011.2
20260501202553 62 36 5.0 15.0 0.21 3.98 3.97 95 1011.3
20260501202057 62 119 7.0 15.0 0.22 3.98 3.97 95 1010.5
20260501201552 62 59 6.0 15.0 0.21 3.96 3.95 95 1010.7
20260501201053 62 262 4.0 15.0 0.18 3.92 3.91 95 1011.6